Regional Weather Roundup
Issued by NWS Austin/San Antonio, TX

Home | Current Version | Previous Version | Text Only | Print | Product List | Glossary On
Versions: 1 2 3 4 5 6 7 8 9 10 11 12 13 14 15 16 17 18 19 20 21 22 23 24 25 26 27 28 29 30 31 32 33 34 35 36 37 38 39 40 41 42 43 44 45 46 47 48 49 50
882
ASUS44 KEWX 211902
RWREWX
SOUTH TEXAS REGIONAL WEATHER ROUNDUP
NATIONAL WEATHER SERVICE AUSTIN/SAN ANTONIO TX
200 PM CDT MON OCT 21 2019

NOTE: "FAIR" INDICATED FEW OR NO CLOUDS BELOW 12,000 FEET WITH NO
SIGNIFICANT WEATHER AND/OR OBSTRUCTIONS TO VISIBILITY.

* - THESE STATIONS ARE NOT NWS OR FAA STATIONS...AND ARE NOT SUBJECT
    TO NWS AND FAA QUALITY CONTROL.

TXZ171-172-183>190-212000-
TEXAS HILL COUNTRY AND EDWARDS PLATEAU

CITY           SKY/WX    TMP DP  RH WIND       PRES   REMARKS
JUNCTION       SUNNY     74  33  22 CALM      29.96F
*LLANO         SUNNY     75  32  20 N7        29.98F
BURNET         SUNNY     73  31  21 N8        29.96F
*HORSESHOE BAY SUNNY     73  34  23 NE3       29.94F
*KERRVILLE     SUNNY     76  32  19 CALM      29.95S
*FREDERICKSBRG SUNNY     72  33  23 NE8       29.96F
*ROCKSPRINGS   SUNNY     72  30  21 VRB7G13   30.02F
*BOERNE        SUNNY     72  34  25 N8        29.94F
*CASTROVILLE   SUNNY     82  32  16 NE7       29.92F
HONDO          SUNNY     82  34  17 NE10      29.91F
*UVALDE        SUNNY     81  34  18 NE8       29.93S
DEL RIO        SUNNY     85  24  11 NW10G18   29.92F
LAUGHLIN AFB   SUNNY     83  23  11 W9        29.93F
SPOFFORD       SUNNY     84  23  10 N8        29.86F
*EAGLE PASS    SUNNY     84  28  13 NW9G15    29.93F
CARRIZO SPRGS  SUNNY     84  39  20 CALM      29.88F
*FAITH RANCH   SUNNY     84  41  21 N10G18    29.90F
$$

TXZ173-191>194-202-209-217>225-228-212000-
CENTRAL AND SOUTH CENTRAL TEXAS

CITY           SKY/WX    TMP DP  RH WIND       PRES   REMARKS
GEORGETOWN     SUNNY     76  33  21 N14       29.94F
AUSTIN/BERGSTM MOSUNNY   80  37  21 N17       29.89F
AUSTIN/MABRY   SUNNY     79  33  19 VRB6      29.92F
*AUSTIN/EXEC   SUNNY     75  36  23 N15       29.92F
*LAGO VISTA    SUNNY     74  35  24 NE7       29.94F
SAN MARCOS     SUNNY     80  39  23 N14       29.91F
NEW BRAUNFELS  SUNNY     80  34  19 NE14G20   29.89F
RANDOLPH AFB   SUNNY     79  38  22 N9        29.90F
SEGUIN         SUNNY     77  38  24 NE13      29.93F
KELLY FIELD    SUNNY     80  38  22 N9        29.89F
SAN ANTONIO    MOSUNNY   78  38  23 NE9       29.91F
STINSON FIELD  SUNNY     79  41  25 N12G20    29.88F
PLEASANTON     SUNNY     80  40  23 NE13      29.89S
*LA GRANGE     SUNNY     78  45  30 N10       29.86F
*GIDDINGS      SUNNY     79  39  24 NE8       29.90F
*GONZALES      SUNNY     79  45  29 NE8       29.87F
$$

TXZ163>164-176>182-195>201-210>213-226-227-235-212000-
SOUTHEAST TEXAS

CITY           SKY/WX    TMP DP  RH WIND       PRES   REMARKS
COLLEGE STN    SUNNY     80  42  25 N10       29.88F
*BRYAN         SUNNY     78  44  29 N7        29.90F
*CALDWELL      SUNNY     76  38  24 N9        29.90F
*CROCKETT      SUNNY     75  46  35 NE8       29.90F
*BRENHAM       SUNNY     78  43  28 NE7       29.87F
HUNTSVILLE     SUNNY     77  48  35 VRB6      29.87F
CONROE         SUNNY     77  59  53 N7        29.86F
HOUSTON BUSH   MOSUNNY   78  62  57 NE7       29.83F
HOUSTON HOBBY  PTSUNNY   74  61  63 NE10      29.82F
*HOUSTON SW AP FAIR      74  63  67 NE7       29.84F
PEARLAND       FAIR      75  62  64 N8        29.84F
HOUSTON HOOKS  FAIR      77  59  53 NE7       29.83F
ELLINGTON FLD  NOT AVBL
SUGAR LAND     FAIR      78  61  55 NE9       29.82F
*HOUSTON EXEC  FAIR      77  59  53 NE9       29.85F
*CLEVELAND MUN FAIR      73  64  72 N5        29.86F
*WHARTON       SUNNY     77  55  45 N13G21    29.84F
*COLUMBUS      FAIR      78  46  31 N10       29.86F
*EAGLE LAKE    SUNNY     81  57  44 NE12G17   29.84F
$$

TXZ214>216-236>238-212000-
THE UPPER TEXAS COAST

CITY           SKY/WX    TMP DP  RH WIND       PRES   REMARKS
*ORANGE        PTSUNNY   70  70 100 CALM      29.85F
PORT ARTHUR    PTSUNNY   70  66  87 NW9       29.82F
GALVESTON      FAIR      72  64  76 N14       29.83F
ANGLETON       FAIR      73  64  73 N10       29.83F
*BAY CITY      SUNNY     77  66  68 N9G21     29.83F
PALACIOS       SUNNY     78  61  55 N14       29.83F
$$

TXZ229>234-239>247-212000-
TEXAS COASTAL BEND AND RIO GRANDE PLAINS

CITY           SKY/WX    TMP DP  RH WIND       PRES   REMARKS
VICTORIA       MOSUNNY   80  60  50 NE9       29.84F
*BEEVILLE      PTSUNNY   85  50  29 NE15      29.84F
ROCKPORT       SUNNY     83  64  52 N17G23    29.82F
*PORT ARANSAS  CLOUDY    77  67  70 N18       29.84S
*PORT LAVACA   SUNNY     81  62  51 NE17      29.84F
*INGLESIDE     SUNNY     80  67  64 NE14      29.83S
CORPUS CHRISTI PTSUNNY   83  61  47 NE17      29.83S
CORPUS NAS     PTSUNNY   80  70  71 NE14      29.82F
*ROBSTOWN      SUNNY     84  62  46 NE14G21   29.84S
ALICE          PTSUNNY   86  55  34 N18       29.83F
KINGSVILLE NAS PTSUNNY   85  63  47 N13       29.82F
COTULLA        SUNNY     84  38  19 MISG      29.88F
LAREDO         MOSUNNY   87  58  37 N14       29.85F
$$

TXZ248>255-212000-
DEEP SOUTH TEXAS

CITY           SKY/WX    TMP DP  RH WIND       PRES   REMARKS
BROWNSVILLE    FAIR      90  76  63 SW10      29.76F HX 101
PORT ISABEL    FAIR      90  76  63 W6        29.77F HX 101
HARLINGEN      MOSUNNY   89  77  67 N13       29.77F HX 101
*HEBBRONVILLE  SUNNY     86  61  43 N5        29.85F
MCALLEN        SUNNY     90  73  57 N12       29.79F HX  98
*WESLACO       PTSUNNY   88  74  61 NW7       29.78  HX  97
FALFURRIAS     MOSUNNY   90  63  41 NE13      29.81S HX  90
EDINBURG       FAIR      89  72  56 N9        29.79F HX  95
*ZAPATA        NOT AVBL
$$

TXZ213>215-236>238-242>244-246-247-251-254-255-212000-
CMAN STATIONS

STATION/POSITION TIME  TEMP    WIND        PRES    WAVE
                       AIR SEA DIR/SP/G            HT/PER
                 (UTC) (F)     (DEG/KT/KT) (MB)    (FT/S)
SABINE PASS      1818   68 78  320/  4/  8 1012.2
SEA RIM ST PARK  1800   69     350/  4/  5 1010.9
NORTH JETTY/GLS  1818   69 77   20/ 15/ 17 1008.8
EAGLE POINT      1818   71 76   10/  7/  9 1009.8
MORGANS POINT    1818   70 78   10/ 10/ 12 1010.9
PORT O`CONNOR    1818   73 80   20/ 16/ 19 1010.2
PORT ARANSAS     1800   74 79   10/ 18/ 20 1010.1
MALAQUITE BEACH  1818   79 81  360/ 20/ 24 1009.8
BAFFIN BAY       1818   76 81  360/ 18/ 20 1010.4
PORT ISABEL      1830   87 81  210/  7/ 10 1008.6
$$




USA.gov is the U.S. government's official web portal to all federal, state and local government web resources and services.